SIA990 WSSS-WIMM

Flight info

Callsign SIA990
Flight time 1h 8m
Altitude 30000
Route AROSO3A AROSO Y513 KALIL Y504 BILIK G582 PUGER
Aircraft B38M/M-SDE1E2E3FGHIJ4J7M3P2RWYZ/EB1D1

Departure

Time 2026-05-08 09:49
Airport Singapore Changi Airport (WSSS)

Arrival

Time 2026-05-08 10:57
Airport Kualanamu International Airport (WIMM)
Time Latitude Longitude Altitude Speed Heading
2026-05-08 09:13 1.35679 103.99238 28 ft 0 kts 142°
2026-05-08 09:35 1.35681 103.99237 28 ft 0 kts 142°
2026-05-08 09:36 1.35686 103.99232 27 ft 2 kts 128°
2026-05-08 09:36 1.35692 103.99219 27 ft 2 kts 102°
2026-05-08 09:36 1.35692 103.99204 27 ft 2 kts 76°
2026-05-08 09:36 1.35686 103.99191 27 ft 2 kts 50°
2026-05-08 09:37 1.35675 103.99181 28 ft 2 kts 25°
2026-05-08 09:37 1.35670 103.99179 28 ft 0 kts 19°
2026-05-08 09:40 1.35678 103.99182 28 ft 4 kts 20°
2026-05-08 09:40 1.35740 103.99210 28 ft 16 kts 24°
2026-05-08 09:40 1.35830 103.99297 28 ft 17 kts 54°
2026-05-08 09:40 1.35880 103.99379 28 ft 12 kts 75°
2026-05-08 09:41 1.35869 103.99466 28 ft 13 kts 116°
2026-05-08 09:41 1.35844 103.99519 28 ft 0 kts 114°
2026-05-08 09:41 1.35842 103.99524 28 ft 1 kts 115°
2026-05-08 09:41 1.35798 103.99535 28 ft 14 kts 197°
2026-05-08 09:42 1.35682 103.99487 28 ft 17 kts 203°
2026-05-08 09:42 1.35569 103.99441 28 ft 17 kts 202°
2026-05-08 09:42 1.35458 103.99396 28 ft 18 kts 203°
2026-05-08 09:42 1.35325 103.99340 28 ft 21 kts 202°
2026-05-08 09:43 1.35173 103.99277 28 ft 27 kts 202°
2026-05-08 09:43 1.34990 103.99197 28 ft 28 kts 204°
2026-05-08 09:43 1.34813 103.99122 28 ft 27 kts 203°
2026-05-08 09:43 1.34641 103.99050 28 ft 26 kts 203°
2026-05-08 09:44 1.34478 103.98981 28 ft 25 kts 203°
2026-05-08 09:44 1.34318 103.98913 28 ft 24 kts 203°
2026-05-08 09:44 1.34167 103.98850 28 ft 23 kts 202°
2026-05-08 09:44 1.34018 103.98790 28 ft 22 kts 203°
2026-05-08 09:45 1.33871 103.98724 28 ft 25 kts 202°
2026-05-08 09:45 1.33699 103.98652 28 ft 27 kts 203°
2026-05-08 09:45 1.33522 103.98576 28 ft 27 kts 203°
2026-05-08 09:45 1.33347 103.98503 28 ft 26 kts 204°
2026-05-08 09:46 1.33178 103.98431 28 ft 25 kts 202°
2026-05-08 09:46 1.33018 103.98364 28 ft 20 kts 202°
2026-05-08 09:46 1.32937 103.98380 28 ft 10 kts 114°
2026-05-08 09:46 1.32914 103.98450 28 ft 10 kts 108°
2026-05-08 09:47 1.32913 103.98512 28 ft 8 kts 50°
2026-05-08 09:47 1.32930 103.98522 28 ft 0 kts 22°
2026-05-08 09:48 1.33000 103.98551 28 ft 37 kts 22°
2026-05-08 09:48 1.33460 103.98746 28 ft 103 kts 23°
2026-05-08 09:48 1.34309 103.99104 28 ft 157 kts 23°
2026-05-08 09:48 1.35389 103.99532 465 ft 167 kts 22°
2026-05-08 09:49 1.36446 103.99947 1142 ft 164 kts 22°
2026-05-08 09:49 1.37523 104.00375 1693 ft 171 kts 21°
2026-05-08 09:49 1.38675 104.00840 2167 ft 185 kts 21°
2026-05-08 09:49 1.39865 104.01425 2627 ft 199 kts 36°
2026-05-08 09:50 1.40799 104.02475 3101 ft 212 kts 61°
2026-05-08 09:50 1.41436 104.03889 3349 ft 240 kts 68°
2026-05-08 09:50 1.42106 104.05502 3847 ft 257 kts 69°
2026-05-08 09:50 1.42516 104.07190 4785 ft 255 kts 82°
2026-05-08 09:51 1.42723 104.08981 5391 ft 267 kts 82°
2026-05-08 09:51 1.42939 104.10877 5856 ft 283 kts 83°
2026-05-08 09:51 1.43096 104.12831 6857 ft 279 kts 91°
2026-05-08 09:51 1.42701 104.14726 7363 ft 298 kts 113°
2026-05-08 09:52 1.41418 104.16322 8252 ft 299 kts 141°
2026-05-08 09:52 1.39540 104.17199 9209 ft 299 kts 166°
2026-05-08 09:52 1.37512 104.17471 10187 ft 298 kts 176°
2026-05-08 09:52 1.35351 104.17406 10667 ft 318 kts 186°
2026-05-08 09:53 1.33116 104.17054 11212 ft 333 kts 189°
2026-05-08 09:53 1.30761 104.16612 11723 ft 348 kts 189°
2026-05-08 09:53 1.28357 104.16184 12446 ft 356 kts 189°
2026-05-08 09:53 1.25902 104.15784 13271 ft 359 kts 188°
2026-05-08 09:54 1.23408 104.15406 14066 ft 363 kts 187°
2026-05-08 09:54 1.20898 104.15040 14842 ft 368 kts 187°
2026-05-08 09:54 1.18352 104.14673 15597 ft 372 kts 187°
2026-05-08 09:54 1.15759 104.14298 16383 ft 376 kts 187°
2026-05-08 09:55 1.13155 104.13922 17096 ft 380 kts 187°
2026-05-08 09:55 1.10536 104.13547 17786 ft 384 kts 186°
2026-05-08 09:55 1.07855 104.13165 18439 ft 390 kts 186°
2026-05-08 09:55 1.05140 104.12777 19079 ft 394 kts 186°
2026-05-08 09:56 1.02418 104.12302 19713 ft 399 kts 191°
2026-05-08 09:56 0.99762 104.11517 20296 ft 406 kts 200°
2026-05-08 09:56 0.97189 104.10229 20868 ft 413 kts 211°
2026-05-08 09:56 0.94890 104.08501 21384 ft 420 kts 221°
2026-05-08 09:57 0.91164 104.03921 22425 ft 431 kts 237°
2026-05-08 09:57 0.89677 104.01341 22998 ft 434 kts 242°
2026-05-08 09:57 0.88320 103.98656 23560 ft 437 kts 244°
2026-05-08 09:58 0.87015 103.95905 24093 ft 440 kts 245°
2026-05-08 09:58 0.85715 103.93097 24610 ft 443 kts 245°
2026-05-08 09:58 0.84428 103.90305 25139 ft 446 kts 245°
2026-05-08 09:58 0.83138 103.87485 25665 ft 448 kts 245°
2026-05-08 09:59 0.81743 103.84670 26102 ft 452 kts 240°
2026-05-08 09:59 0.80093 103.82029 26584 ft 454 kts 234°
2026-05-08 09:59 0.78228 103.79458 27046 ft 456 kts 232°
2026-05-08 09:59 0.76262 103.76943 27509 ft 458 kts 230°
2026-05-08 10:00 0.74313 103.74434 27924 ft 462 kts 233°
2026-05-08 10:00 0.72620 103.71698 28318 ft 467 kts 242°
2026-05-08 10:00 0.71389 103.68722 28922 ft 465 kts 252°
2026-05-08 10:00 0.70686 103.65609 29564 ft 458 kts 262°
2026-05-08 10:01 0.70511 103.62420 29775 ft 463 kts 270°
2026-05-08 10:01 0.70631 103.59215 29803 ft 461 kts 273°
2026-05-08 10:01 0.71031 103.52849 29809 ft 458 kts 273°
2026-05-08 10:02 0.71297 103.46507 29811 ft 459 kts 271°
2026-05-08 10:02 0.71399 103.40118 29812 ft 459 kts 270°
2026-05-08 10:03 0.71395 103.33760 29813 ft 458 kts 269°
2026-05-08 10:03 0.71341 103.27458 29816 ft 457 kts 269°
2026-05-08 10:04 0.71266 103.21090 29815 ft 457 kts 269°
2026-05-08 10:04 0.71183 103.14754 29816 ft 457 kts 269°
2026-05-08 10:05 0.71097 103.08432 29819 ft 457 kts 269°
2026-05-08 10:05 0.71009 103.02053 29816 ft 457 kts 269°
2026-05-08 10:06 0.70922 102.95736 29819 ft 457 kts 269°
2026-05-08 10:06 0.71401 102.89414 29814 ft 456 kts 284°
2026-05-08 10:07 0.72475 102.86468 29817 ft 455 kts 297°
2026-05-08 10:07 0.74146 102.83774 29818 ft 454 kts 308°
2026-05-08 10:07 0.78212 102.79013 29820 ft 452 kts 314°
2026-05-08 10:08 0.82573 102.74420 29820 ft 453 kts 315°
2026-05-08 10:08 0.86927 102.69885 29820 ft 451 kts 315°
2026-05-08 10:09 0.91239 102.65361 29822 ft 452 kts 314°
2026-05-08 10:09 0.95589 102.60767 29820 ft 452 kts 314°
2026-05-08 10:10 0.99887 102.56213 29820 ft 451 kts 314°
2026-05-08 10:10 1.04208 102.51624 29819 ft 451 kts 314°
2026-05-08 10:11 1.08515 102.47050 29810 ft 452 kts 314°
2026-05-08 10:11 1.12820 102.42472 29804 ft 451 kts 314°
2026-05-08 10:12 1.16922 102.38110 29806 ft 452 kts 314°
2026-05-08 10:12 1.21232 102.33531 29811 ft 452 kts 314°
2026-05-08 10:13 1.25536 102.28957 29816 ft 450 kts 314°
2026-05-08 10:13 1.29847 102.24374 29818 ft 451 kts 314°
2026-05-08 10:14 1.34121 102.19827 29821 ft 451 kts 314°
2026-05-08 10:14 1.38479 102.15317 29817 ft 450 kts 317°
2026-05-08 10:15 1.43484 102.11626 29815 ft 446 kts 331°
2026-05-08 10:15 1.49006 102.08715 29816 ft 447 kts 335°
2026-05-08 10:16 1.54564 102.05962 29817 ft 447 kts 335°
2026-05-08 10:16 1.59754 102.02559 29822 ft 449 kts 320°
2026-05-08 10:17 1.64297 101.98199 29822 ft 450 kts 315°
2026-05-08 10:17 1.68663 101.93746 29824 ft 450 kts 316°
2026-05-08 10:18 1.73083 101.89328 29821 ft 449 kts 316°
2026-05-08 10:18 1.77571 101.84952 29822 ft 449 kts 317°
2026-05-08 10:19 1.82055 101.80635 29824 ft 450 kts 317°
2026-05-08 10:20 1.88849 101.74128 29823 ft 451 kts 317°
2026-05-08 10:20 1.93386 101.69786 29824 ft 451 kts 317°
2026-05-08 10:21 1.97930 101.65439 29823 ft 451 kts 317°
2026-05-08 10:21 2.02467 101.61097 29825 ft 450 kts 317°
2026-05-08 10:22 2.07004 101.56752 29824 ft 453 kts 317°
2026-05-08 10:22 2.11588 101.52361 29821 ft 455 kts 317°
2026-05-08 10:23 2.15945 101.47825 29817 ft 455 kts 305°
2026-05-08 10:23 2.17436 101.45026 29825 ft 457 kts 294°
2026-05-08 10:23 2.18580 101.42067 29822 ft 458 kts 290°
2026-05-08 10:24 2.20544 101.35976 29820 ft 458 kts 288°
2026-05-08 10:24 2.22444 101.29919 29818 ft 458 kts 288°
2026-05-08 10:25 2.24435 101.23875 29810 ft 458 kts 289°
2026-05-08 10:25 2.26489 101.17855 29804 ft 459 kts 289°
2026-05-08 10:26 2.28579 101.11822 29802 ft 459 kts 289°
2026-05-08 10:26 2.30675 101.05803 29802 ft 460 kts 290°
2026-05-08 10:27 2.32781 100.99762 29803 ft 460 kts 290°
2026-05-08 10:27 2.34893 100.93707 29803 ft 459 kts 290°
2026-05-08 10:28 2.36993 100.87683 29808 ft 458 kts 289°
2026-05-08 10:28 2.39075 100.81709 29811 ft 459 kts 290°
2026-05-08 10:29 2.41175 100.75685 29813 ft 458 kts 289°
2026-05-08 10:29 2.43272 100.69666 29810 ft 458 kts 289°
2026-05-08 10:30 2.45375 100.63626 29810 ft 459 kts 289°
2026-05-08 10:30 2.47473 100.57601 29808 ft 458 kts 289°
2026-05-08 10:31 2.49550 100.51638 29810 ft 458 kts 289°
2026-05-08 10:31 2.51645 100.45621 29813 ft 459 kts 289°
2026-05-08 10:32 2.53744 100.39592 29810 ft 458 kts 289°
2026-05-08 10:32 2.55839 100.33572 29809 ft 457 kts 289°
2026-05-08 10:33 2.57931 100.27563 29807 ft 458 kts 289°
2026-05-08 10:33 2.60021 100.21555 29804 ft 456 kts 289°
2026-05-08 10:34 2.62104 100.15569 29805 ft 458 kts 289°
2026-05-08 10:34 2.64194 100.09560 29809 ft 457 kts 289°
2026-05-08 10:35 2.66272 100.03583 29807 ft 457 kts 289°
2026-05-08 10:35 2.68371 99.97548 29809 ft 457 kts 289°
2026-05-08 10:36 2.70449 99.91572 29811 ft 456 kts 289°
2026-05-08 10:36 2.72533 99.85577 29585 ft 451 kts 289°
2026-05-08 10:36 2.73558 99.82626 29120 ft 446 kts 289°
2026-05-08 10:37 2.74562 99.79735 28663 ft 440 kts 289°
2026-05-08 10:37 2.75564 99.76850 28201 ft 436 kts 289°
2026-05-08 10:37 2.76543 99.74030 27679 ft 433 kts 289°
2026-05-08 10:37 2.77530 99.71185 27116 ft 431 kts 289°
2026-05-08 10:38 2.78517 99.68343 26552 ft 430 kts 289°
2026-05-08 10:38 2.79485 99.65556 25989 ft 428 kts 290°
2026-05-08 10:38 2.80471 99.62713 25167 ft 434 kts 290°
2026-05-08 10:38 2.81456 99.59872 24659 ft 429 kts 290°
2026-05-08 10:39 2.82424 99.57082 24219 ft 423 kts 290°
2026-05-08 10:39 2.83375 99.54343 23693 ft 420 kts 290°
2026-05-08 10:39 2.84342 99.51559 23129 ft 418 kts 290°
2026-05-08 10:39 2.85283 99.48850 22579 ft 417 kts 290°
2026-05-08 10:40 2.86236 99.46107 22016 ft 415 kts 290°
2026-05-08 10:40 2.87181 99.43386 21451 ft 414 kts 290°
2026-05-08 10:40 2.88120 99.40681 20894 ft 412 kts 290°
2026-05-08 10:40 2.89059 99.37974 20329 ft 411 kts 290°
2026-05-08 10:41 2.89988 99.35299 19764 ft 409 kts 290°
2026-05-08 10:41 2.90913 99.32633 19210 ft 407 kts 290°
2026-05-08 10:41 2.91837 99.29969 18644 ft 404 kts 290°
2026-05-08 10:41 2.92752 99.27328 18078 ft 402 kts 290°
2026-05-08 10:42 2.93663 99.24696 17510 ft 395 kts 290°
2026-05-08 10:42 2.94548 99.22138 16983 ft 389 kts 290°
2026-05-08 10:42 2.95426 99.19602 16434 ft 381 kts 290°
2026-05-08 10:42 2.96283 99.17129 15913 ft 372 kts 290°
2026-05-08 10:43 2.97163 99.14741 15400 ft 362 kts 294°
2026-05-08 10:43 2.98277 99.12527 14896 ft 352 kts 304°
2026-05-08 10:43 2.99780 99.10610 14394 ft 349 kts 314°
2026-05-08 10:43 3.01471 99.08868 13891 ft 347 kts 317°
2026-05-08 10:44 3.03214 99.07192 13382 ft 345 kts 317°
2026-05-08 10:44 3.04948 99.05539 12876 ft 344 kts 317°
2026-05-08 10:44 3.06648 99.03900 12444 ft 340 kts 317°
2026-05-08 10:44 3.08335 99.02250 12076 ft 334 kts 316°
2026-05-08 10:45 3.09994 99.00610 11614 ft 332 kts 316°
2026-05-08 10:45 3.11625 98.98990 11137 ft 330 kts 316°
2026-05-08 10:45 3.13243 98.97379 10673 ft 328 kts 316°
2026-05-08 10:45 3.14863 98.95765 10391 ft 320 kts 316°
2026-05-08 10:46 3.16399 98.94234 10276 ft 306 kts 316°
2026-05-08 10:46 3.17879 98.92760 10112 ft 296 kts 315°
2026-05-08 10:46 3.19329 98.91315 9747 ft 294 kts 316°
2026-05-08 10:46 3.20791 98.89859 9326 ft 294 kts 316°
2026-05-08 10:47 3.22235 98.88421 8934 ft 293 kts 315°
2026-05-08 10:47 3.23690 98.86971 8553 ft 291 kts 315°
2026-05-08 10:47 3.25114 98.85551 8180 ft 289 kts 315°
2026-05-08 10:47 3.26539 98.84132 7801 ft 288 kts 315°
2026-05-08 10:48 3.27971 98.82706 7422 ft 286 kts 315°
2026-05-08 10:48 3.29376 98.81307 7056 ft 284 kts 315°
2026-05-08 10:48 3.30767 98.79922 6685 ft 283 kts 315°
2026-05-08 10:48 3.32166 98.78554 6305 ft 281 kts 316°
2026-05-08 10:49 3.33592 98.77194 5930 ft 280 kts 316°
2026-05-08 10:49 3.35004 98.75858 5558 ft 280 kts 316°
2026-05-08 10:49 3.36420 98.74512 5200 ft 278 kts 316°
2026-05-08 10:49 3.37812 98.73183 5034 ft 269 kts 317°
2026-05-08 10:50 3.39129 98.71924 4963 ft 256 kts 316°
2026-05-08 10:50 3.40403 98.70704 4880 ft 245 kts 316°
2026-05-08 10:50 3.41602 98.69554 4800 ft 237 kts 316°
2026-05-08 10:50 3.42788 98.68420 4720 ft 233 kts 317°
2026-05-08 10:51 3.44118 98.67526 4617 ft 225 kts 342°
2026-05-08 10:51 3.45619 98.67421 4455 ft 216 kts 14°
2026-05-08 10:51 3.46866 98.68144 4294 ft 201 kts 50°
2026-05-08 10:51 3.47415 98.69356 4157 ft 187 kts 77°
2026-05-08 10:52 3.47770 98.70557 4092 ft 177 kts 65°
2026-05-08 10:52 3.48433 98.71611 3899 ft 180 kts 53°
2026-05-08 10:52 3.49254 98.72576 3621 ft 181 kts 48°
2026-05-08 10:52 3.50115 98.73488 3376 ft 180 kts 47°
2026-05-08 10:53 3.50995 98.74393 3137 ft 178 kts 46°
2026-05-08 10:53 3.51864 98.75261 2898 ft 177 kts 45°
2026-05-08 10:53 3.52745 98.76122 2639 ft 176 kts 45°
2026-05-08 10:53 3.53613 98.76965 2436 ft 172 kts 45°
2026-05-08 10:54 3.54462 98.77795 2218 ft 169 kts 45°
2026-05-08 10:54 3.55295 98.78619 1937 ft 164 kts 46°
2026-05-08 10:54 3.56079 98.79403 1764 ft 158 kts 46°
2026-05-08 10:54 3.56835 98.80155 1648 ft 148 kts 45°
2026-05-08 10:55 3.57589 98.80897 1406 ft 152 kts 45°
2026-05-08 10:55 3.58327 98.81625 1133 ft 145 kts 46°
2026-05-08 10:55 3.59043 98.82330 973 ft 143 kts 47°
2026-05-08 10:55 3.59759 98.83046 807 ft 147 kts 46°
2026-05-08 10:56 3.60489 98.83771 642 ft 151 kts 46°
2026-05-08 10:56 3.61243 98.84519 448 ft 151 kts 47°
2026-05-08 10:56 3.61992 98.85272 250 ft 153 kts 47°
2026-05-08 10:56 3.62735 98.86012 69 ft 150 kts 46°
2026-05-08 10:57 3.63422 98.86694 41 ft 112 kts 46°
2026-05-08 10:57 3.63822 98.87092 40 ft 53 kts 45°
2026-05-08 10:57 3.64077 98.87401 26 ft 16 kts 68°
2026-05-08 10:58 3.64087 98.87430 26 ft 3 kts 73°
2026-05-08 10:58 3.64096 98.87461 25 ft 6 kts 73°
2026-05-08 10:58 3.64118 98.87535 24 ft 13 kts 74°
2026-05-08 10:58 3.64135 98.87592 25 ft 7 kts 73°
2026-05-08 10:59 3.64147 98.87635 25 ft 6 kts 73°
2026-05-08 10:59 3.64170 98.87682 26 ft 9 kts 56°
2026-05-08 10:59 3.64232 98.87763 27 ft 17 kts 47°
2026-05-08 10:59 3.64316 98.87847 29 ft 16 kts 44°
2026-05-08 11:00 3.64393 98.87923 32 ft 14 kts 45°
2026-05-08 11:00 3.64423 98.87980 34 ft 7 kts 103°
2026-05-08 11:00 3.64397 98.88013 35 ft 4 kts 133°
2026-05-08 11:00 3.64358 98.88052 37 ft 11 kts 135°
2026-05-08 11:01 3.64298 98.88110 38 ft 14 kts 135°
2026-05-08 11:01 3.64217 98.88191 37 ft 13 kts 136°
2026-05-08 11:01 3.64150 98.88192 37 ft 10 kts 222°
2026-05-08 11:01 3.64078 98.88120 35 ft 19 kts 225°
2026-05-08 11:02 3.63983 98.88026 32 ft 18 kts 225°
2026-05-08 11:02 3.63871 98.87974 32 ft 3 kts 142°
2026-05-08 11:02 3.63851 98.87969 32 ft 3 kts 229°
2026-05-08 11:03 3.63832 98.87950 32 ft 3 kts 226°
2026-05-08 11:03 3.63817 98.87935 32 ft 3 kts 225°
2026-05-08 11:03 3.63807 98.87925 32 ft 0 kts 224°